RH
8 7 8 11 12 15 17 17 17 19 19 18 19 18 18 20 20 18 18 18 17 17 15 14 14 13 13 13 13 13 12 13 13 15 14 12 13 14 15 15 16 17 17 18 18 18 18 19 18 18 18 19 21 23 29 34 37 36 35 35 37 39 40 42 43 46 48 51 48 44 45 46 48 49 50 50 49 48 47 47 47 45 46 50 53 55 53 50 50 49 47 48 48 47 47 45 42
9 8 9 11 12 16 17 17 18 21 20 17 18 19 17 19 19 17 19 19 18 17 16 16 15 14 14 13 12 12 12 12 11 11 11 11 12 12 14 14 14 15 16 17 18 19 19 20 19 18 17 18 19 20 23 26 29 31 32 33 34 37 39 41 42 43 45 46 43 41 42 43 45 47 47 47 48 48 46 46 45 44 43 45 45 45 44 43 44 42 39 39 41 41 41 42 42
9 10 10 11 13 15 17 16 17 22 21 16 18 20 18 17 18 18 19 19 18 17 17 16 16 15 14 14 13 13 12 12 12 11 11 11 11 11 12 13 13 13 15 15 17 18 19 21 21 21 19 18 18 18 19 21 22 24 26 27 28 31 32 34 37 40 41 39 35 34 34 36 39 43 44 46 48 47 46 44 43 41 38 38 36 36 39 41 41 40 37 34 35 35 37 37 38
9 11 12 13 14 15 19 20 20 24 20 18 18 18 19 17 18 19 17 17 18 17 17 17 17 17 16 15 14 13 13 12 12 11 11 10 10 10 10 12 11 12 13 14 15 16 17 19 21 21 21 20 19 18 18 19 20 20 21 22 23 24 23 25 29 33 33 31 29 28 28 30 33 36 40 42 44 43 41 40 39 35 31 33 32 33 37 38 39 39 38 34 32 31 31 30 30
9 11 13 13 14 14 19 21 22 21 17 19 17 14 20 20 19 18 16 16 18 17 17 17 17 17 16 17 16 14 13 12 12 12 11 10 10 10 10 10 11 11 12 13 13 14 15 17 19 20 21 21 21 20 19 19 19 19 19 20 21 20 19 20 23 25 25 24 23 24 26 27 28 30 33 35 36 35 35 34 33 30 28 31 33 34 36 36 37 37 37 34 32 30 27 23 21
10 11 12 13 13 13 17 17 16 17 18 20 15 13 20 20 18 16 15 15 16 17 17 17 17 17 16 17 16 15 14 13 13 13 11 10 10 10 10 10 10 10 11 12 12 13 14 15 17 19 20 21 21 22 21 20 20 19 19 20 20 19 18 19 20 21 21 20 20 21 22 23 24 25 26 27 29 28 28 29 28 26 28 33 34 35 35 34 35 35 34 32 30 29 25 21 18
12 12 12 13 14 14 18 17 16 17 18 18 14 15 18 18 17 15 15 16 16 16 16 17 16 17 17 16 16 16 15 15 15 15 13 11 10 10 10 10 10 10 11 12 12 13 13 14 16 17 19 20 21 22 22 22 22 21 20 20 20 19 18 18 19 19 19 19 19 20 20 20 20 21 22 22 25 25 24 25 25 25 27 31 35 35 34 33 34 33 30 27 25 24 23 21 19
11 12 12 15 18 21 23 19 19 19 17 18 17 16 17 16 16 16 17 17 17 16 16 16 16 16 17 16 16 16 15 15 16 16 15 13 12 11 11 10 10 10 10 11 12 13 13 14 15 16 18 19 20 21 22 23 23 22 22 21 20 19 18 18 18 19 19 19 19 19 19 19 19 19 21 21 24 25 22 24 23 23 25 29 32 32 31 28 28 27 23 22 23 22 20 18 17
10 11 12 16 19 23 23 18 18 19 18 19 18 17 16 16 17 16 17 17 17 16 15 16 16 16 16 16 15 15 15 15 16 16 16 14 13 12 12 11 10 10 10 11 12 13 14 14 14 15 17 18 20 21 21 22 23 23 23 23 22 21 19 18 18 19 19 19 20 20 20 20 20 20 23 24 26 26 22 23 24 24 26 28 28 27 24 21 20 18 16 17 19 21 19 16 14
10 11 13 18 21 20 20 17 18 18 18 19 19 18 16 17 17 16 17 17 16 16 16 16 16 15 15 16 15 15 15 15 16 16 16 15 14 12 12 12 11 11 10 10 11 12 13 14 14 15 16 17 18 19 20 22 23 23 24 24 24 24 23 21 20 19 19 19 20 20 21 22 22 22 25 26 27 29 25 22 24 24 24 24 24 21 19 16 16 15 13 13 14 16 16 14 12
10 10 12 19 21 18 17 17 19 21 21 21 19 17 17 17 17 16 16 17 17 17 17 17 17 16 16 15 15 15 15 15 16 16 16 15 14 13 13 12 12 11 11 11 10 11 12 13 14 15 16 16 17 18 19 20 22 22 23 24 25 26 25 24 23 22 21 21 20 20 22 23 23 23 25 26 26 28 28 25 23 22 22 23 23 20 19 16 14 13 12 13 13 12 12 11 11
10 14 18 20 19 17 18 18 20 23 23 21 17 16 17 17 17 16 17 18 18 18 18 18 18 17 17 15 15 15 14 15 16 16 15 15 15 15 14 13 13 12 12 11 11 11 11 12 13 14 15 16 17 18 19 20 21 21 22 23 25 25 26 26 25 25 25 25 24 22 23 23 23 24 25 25 25 27 29 29 26 24 24 26 25 22 19 14 12 12 12 14 13 11 10 10 10
11 17 18 17 18 19 19 18 20 22 21 18 16 16 17 17 17 17 17 18 19 19 18 18 19 18 17 16 15 15 13 14 15 16 15 15 15 15 15 15 14 13 12 12 11 11 11 11 12 13 15 16 17 18 18 19 20 22 22 22 23 24 25 27 26 26 27 27 27 25 25 25 24 23 25 27 26 27 30 30 29 27 27 27 26 23 19 15 13 13 12 13 12 11 10 10 10
11 13 14 15 20 21 17 16 18 19 17 17 17 16 17 17 17 17 17 19 20 20 19 19 19 19 18 17 16 15 14 14 14 14 15 15 15 16 15 16 15 14 13 12 12 11 11 11 12 13 15 16 17 18 19 19 20 21 22 22 23 24 24 26 27 27 27 27 27 26 26 27 26 25 26 27 27 28 30 31 30 30 31 30 26 23 19 15 14 14 13 13 12 11 10 11 10
10 11 17 17 18 19 16 16 20 20 17 18 18 17 17 17 17 18 19 20 20 19 20 20 20 20 19 19 18 17 16 15 14 14 14 15 15 16 16 15 16 16 15 14 13 13 13 13 13 14 15 17 18 19 20 20 21 22 23 24 24 24 24 26 27 28 28 28 28 27 26 26 26 26 28 28 28 28 29 31 31 32 33 33 29 26 20 15 14 14 14 13 12 11 10 11 11
10 10 17 16 13 16 16 18 22 21 18 19 18 18 18 17 18 18 19 20 20 20 20 21 20 20 20 19 19 19 18 17 16 15 14 15 15 16 16 16 16 17 17 17 16 15 15 16 17 18 19 19 20 21 22 22 22 23 23 24 25 25 25 26 27 28 28 29 29 29 27 25 24 24 27 29 29 28 29 32 32 33 34 32 29 28 22 16 15 14 13 14 12 11 11 11 12
9 12 17 14 13 16 16 19 21 19 19 20 18 17 18 18 18 18 19 21 21 21 21 21 20 20 20 20 20 20 20 19 18 17 16 15 16 17 17 17 17 17 17 18 18 18 18 18 19 20 21 21 22 22 23 24 24 25 25 26 26 26 26 27 28 29 29 30 30 30 29 28 26 24 25 27 28 29 30 32 34 35 34 32 27 26 25 19 16 14 14 14 13 12 12 12 12
12 19 18 13 14 16 17 20 21 19 19 19 17 18 18 18 19 18 20 21 21 22 21 21 20 20 21 20 20 21 21 21 20 19 18 17 17 17 17 18 18 18 18 18 18 19 19 19 20 20 21 21 23 23 23 24 25 26 27 27 27 27 28 28 29 29 30 31 31 31 30 29 28 26 25 27 27 28 30 31 34 36 36 34 28 26 26 22 17 15 14 14 14 13 12 12 13
17 22 18 16 21 18 17 19 19 18 18 18 18 18 19 19 19 19 20 21 22 23 22 22 21 21 21 21 21 21 22 21 21 20 19 19 18 17 17 17 17 18 18 18 18 18 18 19 20 20 20 21 22 23 24 24 25 26 27 29 30 29 29 29 30 30 30 31 31 31 31 30 28 27 26 26 27 28 29 30 32 34 36 37 34 31 28 24 19 15 15 14 14 14 13 13 13
18 20 19 23 25 20 17 17 17 18 19 19 19 20 20 20 20 20 21 22 23 23 23 22 22 22 22 22 22 22 22 22 21 21 20 20 19 18 18 17 17 17 17 18 18 18 18 18 18 19 20 21 21 21 23 24 24 25 26 29 31 32 32 32 31 30 30 31 31 31 31 30 27 26 26 27 27 27 29 30 32 32 33 35 36 35 30 27 22 18 17 15 15 15 14 14 13
19 20 22 24 23 20 18 17 18 19 19 20 20 21 21 20 21 22 22 23 24 23 23 23 23 23 22 22 22 22 22 22 22 22 22 21 20 19 18 18 18 17 17 17 17 18 18 18 18 18 18 19 20 21 22 23 24 25 25 27 29 32 34 36 36 34 33 30 30 30 30 30 29 27 26 27 27 28 29 29 32 32 33 34 35 34 30 28 24 19 18 17 16 16 14 14 13
20 22 22 23 22 21 19 19 20 19 20 21 21 21 21 21 22 23 23 24 24 23 23 24 23 22 22 22 22 23 23 23 23 23 23 22 22 21 20 19 19 19 19 19 19 19 19 19 18 18 18 18 19 20 21 23 24 25 26 27 28 29 31 36 37 37 39 34 30 31 31 30 31 30 28 28 29 32 33 31 31 33 33 34 36 36 32 31 27 21 19 18 17 16 15 13 12
21 22 22 22 23 23 21 21 21 21 22 22 21 21 21 22 23 23 23 23 23 23 24 24 23 23 22 22 22 23 24 24 24 24 23 23 22 22 22 21 21 21 21 21 21 21 21 21 20 20 19 19 20 20 21 22 23 25 26 28 29 29 30 37 40 38 39 39 39 38 37 35 32 29 29 30 30 32 35 35 35 35 34 33 34 36 35 34 31 25 22 21 20 18 16 14 12
22 24 23 22 23 22 22 22 22 22 23 23 22 22 23 23 23 24 23 23 23 23 24 23 23 23 23 23 23 24 25 25 25 24 24 24 23 22 22 22 22 22 22 22 22 22 22 23 23 23 22 22 22 22 22 23 24 25 27 28 30 31 32 35 39 40 39 39 42 41 41 41 38 36 34 31 29 30 32 33 34 36 35 31 32 36 35 33 33 28 25 25 24 22 19 16 13
24 25 24 23 23 23 23 23 23 23 24 23 23 24 24 24 24 24 24 24 24 24 24 23 24 24 24 24 24 25 25 25 25 25 25 25 24 24 24 24 23 23 23 24 24 24 23 24 24 25 26 26 25 25 26 26 27 27 27 28 30 32 33 32 35 40 41 39 40 39 37 39 46 48 43 37 35 35 33 31 31 31 33 34 35 36 34 34 34 29 26 29 29 26 23 20 16
24 24 24 24 24 24 24 24 24 24 25 25 25 25 25 25 26 26 26 26 26 26 25 25 25 25 26 26 26 26 25 25 25 25 26 26 26 27 27 26 26 25 25 25 25 25 25 25 25 25 25 26 27 28 28 30 31 31 30 31 31 32 33 35 36 37 39 39 39 40 38 37 45 48 43 40 40 40 36 35 36 34 35 38 38 36 35 37 36 30 31 34 32 29 27 24 20
24 24 24 25 25 25 24 24 25 26 26 26 26 27 26 27 27 27 27 27 27 27 26 26 26 26 27 27 27 26 26 26 25 25 26 26 28 28 27 27 27 27 27 27 27 27 26 26 26 25 25 25 26 28 30 32 34 35 35 35 35 35 35 36 37 37 37 38 38 40 40 38 42 41 39 39 39 39 37 37 40 39 37 36 37 37 36 37 36 35 37 37 35 33 30 28 25
25 25 26 26 26 25 25 25 26 27 26 26 27 28 27 27 28 28 27 27 27 26 26 26 26 27 27 28 28 28 27 26 26 27 27 27 28 28 27 27 27 28 28 28 28 28 28 28 27 27 27 26 26 27 30 33 35 37 38 39 40 40 39 37 36 37 38 37 37 38 39 38 38 39 39 40 40 38 38 39 41 40 38 36 37 39 38 37 38 39 39 38 37 35 34 31 29
27 26 27 29 29 27 26 26 26 26 28 28 28 29 29 29 28 27 27 27 28 26 26 27 26 27 27 28 29 28 28 28 28 28 29 29 29 29 28 28 28 28 28 29 29 28 28 28 28 29 29 29 28 29 30 32 35 37 38 40 42 43 44 43 39 40 41 40 38 38 39 39 38 39 40 40 39 38 39 43 44 42 42 41 41 41 40 39 40 41 41 40 38 38 38 35 32
28 28 28 29 30 30 27 26 27 28 30 30 29 30 32 32 29 27 27 27 28 27 27 27 27 28 28 29 29 29 29 29 29 29 29 29 29 28 28 29 29 29 30 30 31 30 29 29 29 30 30 31 30 31 32 33 35 37 38 39 41 43 45 47 46 45 45 43 40 39 40 40 38 37 38 38 38 38 40 43 43 43 44 43 43 43 44 43 43 42 42 42 41 40 40 39 36
30 28 32 33 30 32 31 28 30 30 31 31 30 33 33 33 30 29 29 29 29 29 29 29 29 29 29 30 29 29 29 29 29 28 28 28 28 28 27 28 29 29 31 32 32 32 32 31 30 31 31 32 32 32 32 33 35 37 39 40 41 43 44 46 47 47 47 46 44 43 44 42 40 39 38 37 38 39 43 45 44 44 43 43 45 47 47 47 47 47 45 46 45 43 42 41 40
37 30 35 39 32 34 34 30 32 33 33 32 32 35 34 33 32 31 30 30 29 30 31 31 31 31 31 31 30 29 29 29 28 27 28 28 28 27 27 28 28 29 30 30 32 33 33 32 32 32 33 33 33 34 34 35 36 37 39 40 41 43 45 46 47 48 47 47 47 46 45 45 45 44 43 42 43 42 44 45 45 45 45 43 44 46 46 47 48 50 51 51 49 47 46 44 42
43 35 35 41 35 35 35 32 34 34 35 35 35 37 36 35 33 32 31 30 29 30 33 33 32 33 32 31 30 29 29 28 28 27 28 28 28 28 29 29 29 29 29 30 31 32 32 32 33 34 34 34 34 35 36 38 39 39 40 42 42 43 45 46 48 48 47 48 48 48 47 47 47 47 47 46 46 46 45 45 45 47 48 45 43 45 47 48 49 51 52 53 53 53 52 50 47
44 41 38 43 41 39 38 37 37 36 38 37 36 36 36 35 34 33 33 31 30 31 33 34 34 34 33 32 31 30 29 28 28 27 28 28 28 29 30 30 30 30 30 30 31 32 33 33 34 34 34 35 35 37 39 40 41 42 42 44 44 45 45 47 48 49 49 49 49 49 49 48 47 47 48 47 47 48 48 48 50 49 48 48 48 50 52 52 52 52 53 54 55 55 54 54 53
46 45 42 44 45 43 42 42 40 40 41 40 39 38 37 36 35 35 34 33 32 33 34 35 35 34 33 32 31 30 29 28 28 28 28 28 29 29 30 30 31 30 29 29 31 31 32 32 33 34 34 35 38 41 42 44 45 45 45 46 46 45 46 47 48 49 50 50 50 51 50 49 48 48 50 50 50 51 50 53 57 56 57 57 53 51 53 54 55 55 57 57 57 56 55 54 54
48 49 48 47 46 44 45 45 44 43 42 42 41 40 39 37 36 39 37 34 33 35 36 35 34 34 32 32 31 30 30 29 30 29 29 29 29 30 30 31 31 30 29 29 31 31 31 32 33 33 33 35 38 42 44 46 47 47 48 48 47 47 47 47 47 48 49 50 51 51 52 52 52 51 51 51 51 52 51 53 56 57 60 61 55 52 54 54 55 56 57 58 58 57 56 55 55
49 49 49 49 47 45 45 46 47 44 42 44 42 40 40 37 39 43 40 37 37 37 37 35 35 33 32 32 31 32 32 31 32 30 30 30 30 30 30 31 30 29 29 29 29 29 30 31 31 32 34 36 37 40 43 44 46 47 47 48 48 48 49 48 48 48 48 48 50 51 52 53 53 54 54 54 53 53 53 52 52 52 55 56 54 54 56 55 55 55 56 56 57 57 57 56 56
48 48 48 48 49 47 46 46 47 45 43 44 42 40 40 38 42 45 41 40 40 39 38 37 35 34 34 33 33 34 34 34 34 32 31 31 31 31 31 31 29 28 28 27 27 26 28 28 29 31 34 35 35 36 38 39 39 41 40 41 43 44 45 46 45 45 44 46 48 49 50 49 50 51 53 55 55 55 54 54 53 53 53 54 54 55 56 55 55 56 56 56 56 57 57 57 56
49 51 50 48 49 50 49 49 48 45 42 44 43 40 39 40 45 46 43 43 43 40 38 37 36 36 35 35 35 35 35 36 35 34 33 33 33 32 31 30 28 27 27 26 26 26 26 27 28 30 32 32 32 33 33 33 34 34 34 35 36 37 37 38 38 38 39 40 41 42 43 44 44 44 45 47 48 50 51 52 53 54 54 54 55 55 56 56 56 57 57 57 57 57 57 57 56
51 52 50 49 50 52 52 51 48 45 44 44 43 41 39 39 44 45 43 43 42 41 39 38 37 37 37 37 37 37 36 37 36 35 35 34 33 31 30 30 29 28 28 27 27 27 28 28 29 30 31 31 32 32 32 32 32 32 33 33 33 34 34 36 36 37 38 38 39 40 41 41 42 42 42 42 42 43 44 45 46 47 48 49 50 52 52 53 54 55 56 56 56 57 57 58 57
55 54 51 50 52 53 52 51 49 48 48 46 43 42 41 38 39 42 42 41 41 41 40 39 39 39 39 38 38 37 37 37 37 35 35 34 33 32 31 31 30 29 29 28 28 28 28 29 29 30 32 32 32 33 33 34 34 33 33 34 34 35 36 37 37 38 39 39 39 41 42 43 44 44 44 43 43 43 43 43 43 43 43 44 44 45 46 48 50 52 54 54 55 55 55 56 56
57 57 54 52 52 52 51 50 48 48 50 47 43 43 44 41 38 40 43 43 43 42 41 40 41 40 40 40 38 37 37 36 36 35 35 34 34 33 33 32 31 30 30 30 30 29 29 29 29 29 31 32 32 32 34 34 34 34 34 35 36 36 36 36 37 39 40 40 42 43 44 45 46 46 46 46 46 45 45 45 45 44 44 44 44 43 43 44 45 48 50 52 53 55 55 56 56
59 57 56 53 52 51 52 51 49 51 51 47 43 43 44 43 40 42 46 46 45 44 43 43 42 42 41 39 38 37 36 36 36 36 36 36 35 34 34 33 32 31 31 31 31 31 30 30 29 30 31 33 33 33 34 34 33 33 34 34 34 34 35 36 38 39 40 42 43 44 45 46 47 48 49 49 50 49 49 48 47 45 45 44 44 44 43 43 43 44 46 48 50 52 53 54 55
61 59 58 56 52 52 54 52 51 53 50 49 49 45 43 42 41 45 47 47 47 46 46 45 43 42 41 39 38 37 36 35 36 36 36 36 36 35 35 34 33 32 33 34 34 34 33 33 33 33 34 35 35 34 34 34 34 34 33 33 33 33 34 36 38 39 40 42 43 43 44 45 46 47 48 49 50 51 52 52 52 51 49 47 46 45 45 45 45 45 46 47 48 49 50 52 54
61 61 61 59 56 57 59 56 54 53 49 50 52 48 45 44 45 47 46 44 46 47 47 46 43 41 40 38 38 37 36 36 36 36 36 36 36 36 35 35 34 34 34 35 36 36 36 37 36 36 37 37 36 36 35 36 36 35 35 35 35 35 36 37 38 39 40 40 41 41 41 42 43 44 45 46 47 49 51 52 53 54 52 51 49 47 46 45 45 45 45 46 47 48 50 51 53
58 60 61 61 61 61 61 59 55 53 51 51 51 48 48 47 44 45 45 42 44 46 47 45 42 40 39 39 38 37 38 37 37 37 37 37 36 36 36 36 35 35 35 36 37 38 38 38 39 38 39 39 38 37 36 36 36 36 37 37 38 39 39 40 40 39 39 38 37 37 37 39 40 42 43 43 44 45 46 47 49 50 50 50 49 46 45 43 42 41 40 41 42 43 45 48 50
57 59 59 59 61 62 62 62 56 52 55 52 49 48 48 49 45 42 43 43 44 47 47 45 44 42 40 40 39 38 38 38 37 37 37 38 37 37 37 36 36 36 36 37 38 39 40 40 40 40 40 39 37 37 36 36 37 38 39 40 41 42 42 43 42 40 39 37 36 34 35 36 37 38 39 39 39 39 38 38 39 40 41 42 43 42 41 40 39 37 36 36 36 36 37 38 40
57 59 59 58 59 58 59 61 56 56 59 53 50 50 47 48 45 39 42 46 47 49 47 46 46 44 41 40 40 39 39 38 37 37 38 39 38 38 38 37 37 37 38 40 41 42 42 42 42 41 40 39 37 37 37 37 38 39 41 42 43 44 44 44 43 41 39 37 35 33 31 31 32 33 34 33 32 31 29 28 27 28 29 30 32 33 34 34 34 34 33 32 32 31 30 30 31
57 59 59 60 61 59 59 61 59 59 57 51 51 49 45 45 42 39 42 47 50 50 47 46 47 45 42 41 41 40 40 39 38 39 39 39 39 39 39 39 39 40 41 42 44 45 44 43 41 40 39 39 38 37 37 38 39 41 42 43 44 45 44 44 43 41 38 35 32 30 29 28 28 28 29 28 28 26 24 23 22 21 21 21 21 22 23 24 25 27 27 27 26 25 25 25 25
56 56 58 61 64 66 68 67 64 59 51 48 51 49 45 41 38 43 47 47 49 48 47 48 47 45 43 42 42 41 41 40 40 40 40 40 41 41 42 43 43 43 44 45 46 46 44 42 41 41 41 41 40 38 38 39 41 42 43 44 44 45 45 43 41 38 35 33 31 30 29 29 28 28 28 26 25 24 22 21 21 21 20 19 17 17 17 17 18 20 21 22 22 20 19 18 18
55 57 58 58 61 65 65 64 62 57 51 49 50 48 45 38 37 47 49 47 49 47 47 48 47 46 44 43 43 43 43 43 43 43 42 42 43 44 45 46 46 47 47 47 46 43 42 42 42 43 43 44 45 43 41 42 44 45 46 46 46 45 43 41 39 36 33 31 30 29 28 28 29 29 29 29 27 26 24 21 20 19 18 18 17 15 14 14 15 16 17 17 17 16 14 13 12
57 59 57 56 57 58 59 61 60 58 57 55 51 47 45 42 43 49 50 47 49 49 49 50 49 48 46 45 46 47 47 47 45 45 45 45 47 48 49 50 50 50 48 47 45 43 43 43 44 45 46 47 47 46 45 46 47 48 48 47 47 45 43 40 38 35 32 29 26 25 24 24 25 27 27 28 29 29 29 28 25 22 20 18 16 13 11 11 12 12 12 12 12 12 12 10 10
58 57 57 59 61 59 62 64 60 61 63 57 51 48 45 44 45 48 51 50 50 51 51 52 52 51 51 51 52 52 51 50 49 49 49 49 50 50 50 49 49 48 45 43 42 41 42 43 43 45 46 46 47 48 50 51 51 50 49 49 47 45 42 40 37 34 31 28 25 23 22 22 23 24 24 24 24 24 24 24 24 22 20 18 15 13 11 10 10 10 10 10 10 10 10 10 10
58 58 57 61 63 63 67 67 64 69 70 59 51 47 43 42 42 45 50 50 51 53 52 52 54 56 57 58 57 56 54 53 51 50 49 47 47 47 47 46 44 43 42 41 41 42 43 44 45 46 47 49 51 53 55 56 54 51 49 47 45 43 40 37 34 31 29 27 25 23 22 21 21 20 20 19 19 19 19 19 18 18 17 16 16 15 14 14 13 13 12 12 12 12 12 12 11
58 58 57 61 65 66 67 68 66 69 71 63 54 47 41 41 42 45 47 46 49 53 54 55 58 59 60 58 56 54 51 49 48 47 46 45 45 46 45 44 43 42 42 43 43 44 45 46 47 47 48 49 48 46 44 43 41 39 38 38 37 36 35 33 31 30 29 27 26 25 24 24 24 23 23 22 22 22 21 21 19 18 18 17 16 16 15 15 15 15 14 14 13 13 13 13 13
58 59 59 60 64 67 68 68 66 66 69 67 59 49 41 42 46 47 45 45 49 54 57 59 58 56 54 51 48 45 43 43 44 44 44 44 45 45 44 43 43 43 44 45 46 46 47 48 47 46 45 43 40 37 34 33 33 32 32 32 31 29 29 29 29 29 28 27 26 25 24 23 22 22 22 22 21 20 20 19 18 17 17 16 16 16 15 15 15 15 14 14 14 13 13 13 12
60 62 63 63 65 69 71 69 67 69 73 73 69 58 43 43 53 53 49 50 52 53 55 55 53 51 47 44 41 40 40 41 41 41 41 42 43 43 41 41 42 44 47 48 49 49 49 48 47 44 41 38 35 33 32 32 31 29 28 27 26 25 25 25 25 24 24 22 21 20 18 17 16 16 16 16 16 16 16 16 17 16 16 16 16 16 16 16 15 15 14 14 13 13 12 12 12
61 62 63 64 67 71 75 74 69 71 75 72 74 69 50 47 59 58 54 55 53 51 52 52 53 52 48 45 43 41 40 40 40 41 42 43 43 42 41 42 44 48 50 50 50 49 48 47 45 42 39 36 36 36 35 32 28 25 24 23 23 23 22 21 20 20 19 18 17 17 17 16 16 16 17 17 17 17 17 17 17 17 17 17 17 17 16 16 15 15 14 14 13 12 12 12 12